S51UL-6 Weather Reports


Display with metric or nautical units.
time (UTC)temp
F
wind
direction
speed
MPH
gust
MPH
rain 1hr
in
rain 24hr
in
rain mn
in
humidity
%
barometer
mb
20260510224701 56 45 0.0 0.0 0.00 0.00 0.00 79 1009.6
20260510223701 56 45 0.0 0.0 0.00 0.00 0.00 78 1009.4
20260510222703 57 45 0.0 0.0 0.00 0.00 0.00 77 1009.4
20260510222203 57 45 0.0 0.0 0.00 0.00 0.00 77 1009.6
20260510221703 57 45 0.0 0.0 0.00 0.00 0.00 77 1009.5
20260510221203 57 45 0.0 0.0 0.00 0.00 0.00 77 1009.7
20260510220703 57 45 0.0 0.0 0.00 0.00 0.00 77 1009.6
20260510220203 57 45 0.0 0.0 0.00 0.00 0.00 76 1009.6
20260510215703 57 45 0.0 0.0 0.00 0.00 0.00 76 1009.6
20260510214204 58 45 0.0 0.0 0.00 0.00 0.00 76 1009.6
20260510213703 58 45 0.0 0.0 0.00 0.00 0.00 76 1009.7
20260510213204 58 45 0.0 0.0 0.00 0.00 0.00 76 1009.5
20260510212704 58 45 0.0 0.0 0.00 0.00 0.00 76 1009.5
20260510212202 58 45 0.0 0.0 0.00 0.00 0.00 76 1009.7
20260510211704 58 45 0.0 0.0 0.00 0.00 0.00 75 1009.7
20260510210702 58 45 0.0 0.0 0.00 0.00 0.00 74 1009.6
20260510205704 58 45 0.0 0.0 0.00 0.00 0.00 74 1009.9
20260510205202 58 45 0.0 0.0 0.00 0.00 0.00 74 1009.8
20260510204704 58 45 0.0 0.0 0.00 0.00 0.00 74 1009.8
20260510204205 58 45 0.0 0.0 0.00 0.00 0.00 74 1009.9
20260510203702 58 45 0.0 0.0 0.00 0.00 0.00 74 1009.9
20260510203207 58 45 0.0 0.0 0.00 0.02 0.00 74 1009.9
20260510202704 58 45 0.0 0.0 0.00 0.02 0.00 73 1010.0
20260510202204 58 45 0.0 0.0 0.00 0.02 0.00 73 1010.3
20260510201704 58 45 0.0 0.0 0.00 0.02 0.00 72 1010.1
20260510201202 58 45 0.0 0.0 0.00 0.02 0.00 72 1010.1
20260510200702 59 45 0.0 0.0 0.00 0.02 0.00 72 1010.0
20260510200204 59 45 0.0 0.0 0.00 0.02 0.00 72 1010.2
20260510195203 59 45 0.0 0.0 0.00 0.02 0.00 72 1010.0
20260510194705 60 45 0.0 0.0 0.00 0.02 0.00 71 1010.2
20260510194203 60 45 0.0 0.0 0.00 0.02 0.00 70 1010.3
20260510193705 60 45 0.0 0.0 0.00 0.02 0.00 70 1010.3
20260510193205 60 90 0.0 0.0 0.00 0.08 0.00 69 1010.3
20260510192703 61 90 0.0 0.0 0.00 0.08 0.00 68 1010.3
20260510192205 61 90 0.0 0.0 0.00 0.08 0.00 67 1010.1
20260510191703 62 90 0.0 0.0 0.00 0.08 0.00 67 1010.2
20260510191203 62 90 0.0 0.0 0.00 0.08 0.00 66 1010.3
20260510190703 62 158 0.0 0.0 0.00 0.08 0.00 65 1010.2
20260510190203 63 158 0.0 0.0 0.00 0.08 0.00 64 1010.1
20260510185703 63 158 0.0 0.0 0.00 0.08 0.00 63 1010.0
20260510185206 64 158 0.0 0.0 0.00 0.08 0.00 63 1010.1
20260510184703 64 158 0.0 0.0 0.00 0.08 0.00 62 1010.0
20260510183205 65 158 2.0 7.0 0.00 0.10 0.00 62 1009.7
20260510182704 65 135 0.0 0.0 0.00 0.10 0.00 62 1009.9
20260510182205 65 158 1.0 3.0 0.00 0.10 0.00 62 1009.8
20260510181204 66 158 1.0 4.0 0.00 0.10 0.00 62 1009.7
20260510180706 66 158 0.0 3.0 0.00 0.10 0.00 62 1009.7
20260510180206 66 158 1.0 5.0 0.00 0.10 0.00 62 1009.9
20260510175706 67 158 2.0 5.0 0.00 0.10 0.00 62 1009.9
20260510175204 67 180 1.0 4.0 0.00 0.10 0.00 62 1009.7
20260510174706 67 158 3.0 4.0 0.00 0.10 0.00 62 1009.7
20260510174206 68 135 1.0 4.0 0.00 0.10 0.00 61 1009.6
20260510173706 68 158 1.0 2.0 0.00 0.10 0.00 60 1009.7
20260510172706 69 158 0.0 2.0 0.00 0.12 0.00 59 1009.8
20260510172206 69 158 0.0 0.0 0.00 0.12 0.00 58 1009.8
20260510171707 69 135 1.0 4.0 0.00 0.12 0.00 57 1009.8
20260510171206 69 158 2.0 4.0 0.00 0.12 0.00 56 1009.8
20260510170707 70 158 0.0 4.0 0.00 0.12 0.00 56 1009.9
20260510170207 70 158 2.0 4.0 0.00 0.12 0.00 56 1009.9
20260510165707 70 158 1.0 3.0 0.00 0.12 0.00 55 1009.9
20260510165206 71 158 2.0 6.0 0.00 0.12 0.00 55 1009.9
20260510164707 71 158 2.0 6.0 0.00 0.12 0.00 54 1009.7
20260510164207 71 158 3.0 5.0 0.00 0.12 0.00 54 1009.9
20260510163709 71 158 3.0 7.0 0.00 0.12 0.00 54 1010.0
20260510163207 72 158 5.0 13.0 0.00 0.16 0.00 53 1010.0
20260510162707 73 158 5.0 13.0 0.00 0.16 0.00 52 1010.0
20260510162207 73 158 2.0 4.0 0.00 0.16 0.00 52 1010.0
20260510161707 73 135 3.0 4.0 0.00 0.16 0.00 51 1010.3
20260510161243 73 135 6.0 11.0 0.00 0.16 0.00 50 1010.3
20260510161208 73 135 6.0 11.0 0.00 0.16 0.00 50 1010.3
20260510160707 74 135 6.0 11.0 0.00 0.16 0.00 50 1010.2
20260510160207 74 135 1.0 5.0 0.00 0.16 0.00 50 1010.3
20260510155707 74 135 1.0 3.0 0.00 0.16 0.00 50 1010.3
20260510155208 74 135 0.0 2.0 0.00 0.16 0.00 51 1010.2
20260510154707 74 135 0.0 2.0 0.00 0.16 0.00 52 1010.3
20260510154207 74 158 0.0 2.0 0.00 0.16 0.00 52 1010.3
20260510153207 74 135 0.0 1.0 0.00 0.16 0.00 52 1010.4
20260510152707 74 158 0.0 2.0 0.00 0.16 0.00 52 1010.4
20260510152208 74 135 3.0 5.0 0.00 0.16 0.00 51 1010.5
20260510151708 74 135 3.0 5.0 0.00 0.16 0.00 51 1010.7
20260510150709 75 158 0.0 4.0 0.00 0.16 0.00 52 1010.8
20260510145708 75 135 0.0 0.0 0.00 0.16 0.00 51 1010.9
20260510145209 75 135 0.0 0.0 0.00 0.16 0.00 52 1010.8
20260510144708 76 23 0.0 0.0 0.00 0.16 0.00 50 1011.1
20260510144208 76 23 0.0 0.0 0.00 0.16 0.00 50 1011.0
20260510142709 77 158 0.0 0.0 0.00 0.16 0.00 50 1011.3
20260510142208 77 135 0.0 3.0 0.00 0.16 0.00 51 1011.4
20260510141709 77 135 1.0 3.0 0.00 0.16 0.00 51 1011.6
20260510141209 76 135 0.0 2.0 0.00 0.16 0.00 53 1011.8
20260510140709 75 135 1.0 2.0 0.00 0.16 0.00 53 1011.7
20260510140208 74 158 0.0 2.0 0.00 0.16 0.00 53 1011.8
20260510135709 74 158 0.0 1.0 0.00 0.16 0.00 52 1011.9
20260510134709 76 135 2.0 4.0 0.00 0.16 0.00 51 1012.0
20260510134209 77 135 2.0 4.0 0.00 0.16 0.00 51 1012.0
20260510133209 77 135 1.0 5.0 0.00 0.16 0.00 52 1012.1
20260510132709 77 135 0.0 0.0 0.00 0.16 0.00 53 1012.5
20260510130709 75 0 1.0 3.0 0.00 0.16 0.00 59 1012.6
20260510130209 74 0 1.0 3.0 0.00 0.16 0.00 59 1012.6
20260510125209 74 45 1.0 4.0 0.00 0.16 0.00 59 1012.9
20260510124709 74 135 0.0 0.0 0.00 0.16 0.00 59 1013.0
20260510124210 75 135 0.0 0.0 0.00 0.16 0.00 59 1013.2
20260510123709 75 23 0.0 0.0 0.00 0.16 0.00 59 1013.2
20260510123209 75 23 0.0 0.0 0.00 0.16 0.00 58 1013.4
20260510122709 76 23 0.0 0.0 0.00 0.16 0.00 59 1013.4
20260510122209 75 135 0.0 0.0 0.00 0.16 0.00 61 1013.6
20260510121709 74 135 0.0 0.0 0.00 0.16 0.00 61 1013.6
20260510121210 74 135 0.0 0.0 0.00 0.16 0.00 62 1013.6
20260510120210 74 135 0.0 0.0 0.00 0.16 0.00 62 1013.7
20260510115711 74 135 0.0 0.0 0.00 0.16 0.00 63 1014.0
20260510114210 72 45 0.0 0.0 0.00 0.16 0.00 62 1013.9
20260510113212 74 135 0.0 0.0 0.00 0.16 0.00 62 1014.2
20260510112710 74 23 0.0 0.0 0.00 0.16 0.00 63 1014.1
20260510111710 73 180 0.0 0.0 0.00 0.16 0.00 64 1014.3
20260510111210 72 158 1.0 4.0 0.00 0.16 0.00 64 1014.6
20260510110710 73 158 0.0 4.0 0.00 0.16 0.00 65 1014.6
20260510105712 71 23 0.0 0.0 0.00 0.16 0.00 67 1014.8
20260510105210 70 23 0.0 0.0 0.00 0.16 0.00 67 1015.0
20260510104710 71 203 0.0 0.0 0.00 0.16 0.00 67 1014.8
20260510104212 71 203 0.0 0.0 0.00 0.16 0.00 68 1015.1
20260510103711 71 203 0.0 0.0 0.00 0.16 0.00 69 1015.1
20260510103215 69 293 0.0 0.0 0.00 0.16 0.00 72 1015.1
20260510102211 67 23 0.0 0.0 0.00 0.16 0.00 74 1015.3
20260510100711 65 203 0.0 0.0 0.00 0.16 0.00 74 1015.4
20260510100211 65 203 0.0 0.0 0.00 0.16 0.00 74 1015.5
20260510095711 65 203 0.0 0.0 0.00 0.16 0.00 74 1015.6
20260510095211 65 158 0.0 0.0 0.00 0.16 0.00 74 1015.6
20260510094711 65 158 0.0 0.0 0.00 0.16 0.00 74 1015.8
20260510094212 65 135 0.0 0.0 0.00 0.16 0.00 76 1016.1
20260510093211 64 225 0.0 0.0 0.00 0.16 0.00 76 1016.0
20260510092712 63 23 0.0 0.0 0.00 0.16 0.00 77 1016.1
20260510091712 63 23 0.0 0.0 0.00 0.16 0.00 76 1016.2
20260510090712 63 45 0.0 0.0 0.00 0.16 0.00 78 1016.5
20260510085712 63 293 0.0 0.0 0.00 0.16 0.00 80 1016.6
20260510085212 62 158 0.0 0.0 0.00 0.16 0.00 79 1016.5
20260510084712 61 158 0.0 0.0 0.00 0.16 0.00 79 1016.4
20260510084212 61 158 0.0 0.0 0.00 0.16 0.00 78 1016.5
20260510083212 62 158 0.0 0.0 0.00 0.16 0.00 80 1016.7
20260510082712 62 158 0.0 0.0 0.00 0.16 0.00 82 1016.7
20260510082212 62 158 0.0 0.0 0.00 0.16 0.00 81 1016.8
20260510081712 61 158 0.0 0.0 0.00 0.16 0.00 82 1016.8
20260510080712 61 180 0.0 0.0 0.00 0.16 0.00 84 1017.0
20260510080212 60 158 0.0 0.0 0.00 0.16 0.00 84 1016.9
20260510075713 60 158 0.0 0.0 0.00 0.16 0.00 86 1017.0
20260510075213 59 158 0.0 0.0 0.00 0.16 0.00 87 1017.0
20260510074713 58 158 0.0 0.0 0.00 0.16 0.00 88 1016.9
20260510073713 56 158 0.0 0.0 0.00 0.16 0.00 88 1017.1
20260510073213 56 180 0.0 0.0 0.00 0.16 0.00 89 1017.1
20260510072713 56 180 0.0 0.0 0.00 0.16 0.00 89 1017.0
20260510072213 55 180 0.0 0.0 0.00 0.16 0.00 90 1017.1
20260510070713 54 180 0.0 0.0 0.00 0.16 0.00 90 1017.3
20260510070214 54 180 0.0 0.0 0.00 0.16 0.00 90 1017.4
20260510065713 54 23 0.0 0.0 0.00 0.16 0.00 91 1017.4
20260510065214 54 23 0.0 0.0 0.00 0.16 0.00 91 1017.2
20260510064714 53 23 0.0 0.0 0.00 0.16 0.00 91 1017.4
20260510063714 53 23 0.0 0.0 0.00 0.16 0.00 91 1017.5
20260510062213 53 23 0.0 0.0 0.00 0.16 0.00 91 1017.5
20260510061713 52 23 0.0 0.0 0.00 0.16 0.00 91 1017.5
20260510060714 52 23 0.0 0.0 0.00 0.16 0.00 91 1017.6
20260510060214 52 23 0.0 0.0 0.00 0.16 0.00 91 1017.5
20260510055714 52 23 0.0 0.0 0.00 0.16 0.00 91 1017.7
20260510054214 51 23 0.0 0.0 0.00 0.16 0.00 91 1017.7
20260510053714 51 23 0.0 0.0 0.00 0.16 0.00 91 1017.6
20260510053215 51 23 0.0 0.0 0.00 0.16 0.00 91 1017.8
20260510052715 51 23 0.0 0.0 0.00 0.16 0.00 91 1017.8
20260510052214 50 23 0.0 0.0 0.00 0.16 0.00 91 1017.6
20260510051718 50 23 0.0 0.0 0.00 0.16 0.00 91 1017.6
20260510051215 50 23 0.0 0.0 0.00 0.16 0.00 91 1017.8
20260510050714 50 23 0.0 0.0 0.00 0.16 0.00 91 1017.6
20260510050214 50 23 0.0 0.0 0.00 0.16 0.00 91 1017.5
20260510045715 50 23 0.0 0.0 0.00 0.16 0.00 91 1017.5
20260510045214 50 23 0.0 1.0 0.00 0.16 0.00 91 1017.7
20260510043716 50 23 0.0 0.0 0.00 0.16 0.00 90 1017.8
20260510043215 50 23 0.0 0.0 0.00 0.16 0.00 90 1017.8
20260510041715 50 23 0.0 0.0 0.00 0.16 0.00 90 1017.9
20260510041216 50 23 0.0 0.0 0.00 0.16 0.00 90 1017.8
20260510040715 50 23 0.0 0.0 0.00 0.16 0.00 90 1017.8
20260510040215 50 23 0.0 0.0 0.00 0.16 0.00 90 1017.8
20260510035715 50 23 0.0 0.0 0.00 0.16 0.00 90 1017.8
20260510035215 50 23 0.0 0.0 0.00 0.16 0.00 90 1017.8
20260510034716 50 23 0.0 0.0 0.00 0.16 0.00 90 1017.7
20260510034219 50 23 0.0 0.0 0.00 0.16 0.00 90 1017.8
20260510033715 50 23 0.0 0.0 0.00 0.16 0.00 90 1017.6
20260510033216 50 23 0.0 0.0 0.00 0.16 0.00 90 1017.5
20260510032715 50 23 0.0 0.0 0.00 0.16 0.00 90 1017.6
20260510032216 50 23 0.0 0.0 0.00 0.16 0.00 90 1017.6
20260510031716 50 23 0.0 0.0 0.00 0.16 0.00 90 1017.5
20260510031216 50 23 0.0 0.0 0.00 0.16 0.00 90 1017.6
20260510030716 50 23 0.0 0.0 0.00 0.16 0.00 90 1017.7
20260510025716 50 23 0.0 0.0 0.00 0.16 0.00 90 1017.8
20260510025216 50 23 0.0 0.0 0.00 0.16 0.00 90 1017.8
20260510024716 50 23 0.0 0.0 0.00 0.16 0.00 90 1017.7
20260510023716 50 23 0.0 0.0 0.00 0.16 0.00 90 1017.8
20260510023216 50 23 0.0 0.0 0.00 0.16 0.00 90 1017.8
20260510022716 50 23 0.0 0.0 0.00 0.16 0.00 90 1017.7
20260510022217 50 23 0.0 0.0 0.00 0.16 0.00 90 1017.9
20260510021717 50 23 0.0 0.0 0.00 0.16 0.00 90 1017.8
20260510021221 50 23 0.0 0.0 0.00 0.16 0.00 90 1017.8
20260510020716 50 23 0.0 0.0 0.00 0.16 0.00 90 1017.9
20260510020216 50 23 0.0 0.0 0.00 0.16 0.00 90 1017.9
20260510015716 50 23 0.0 0.0 0.00 0.16 0.00 90 1017.8
20260510015217 50 23 0.0 0.0 0.00 0.16 0.00 90 1018.0
20260510014717 50 23 0.0 0.0 0.00 0.16 0.00 90 1017.9
20260510013717 50 23 0.0 0.0 0.00 0.16 0.00 90 1018.0
20260510013217 50 23 0.0 0.0 0.00 0.16 0.00 90 1017.9
20260510012717 50 23 0.0 0.0 0.00 0.16 0.00 90 1017.8
20260510011717 50 23 0.0 0.0 0.00 0.16 0.00 89 1017.7
20260510011219 50 23 0.0 0.0 0.00 0.16 0.00 89 1017.8
20260510010717 50 23 0.0 0.0 0.00 0.16 0.00 89 1017.8
20260510005218 50 23 0.0 0.0 0.00 0.16 0.00 89 1017.8
20260510004718 50 23 0.0 0.0 0.00 0.16 0.00 89 1017.7
20260510004219 50 23 0.0 0.0 0.00 0.16 0.00 89 1017.8
20260510003217 51 23 0.0 0.0 0.00 0.16 0.00 89 1017.8
20260510002218 51 23 0.0 0.0 0.00 0.16 0.00 89 1017.9
20260510001718 51 23 0.0 0.0 0.00 0.16 0.00 89 1017.8
20260510001218 51 23 0.0 0.0 0.00 0.16 0.00 89 1017.9
20260510000716 51 23 0.0 0.0 0.00 0.16 0.00 89 1017.9
20260510000218 51 23 0.0 0.0 0.00 0.16 0.00 89 1017.9
20260509234718 51 23 0.0 0.0 0.00 0.16 0.00 89 1018.1
20260509233716 51 0 0.0 0.0 0.00 0.16 0.00 88 1018.1
20260509233216 51 0 0.0 0.0 0.00 0.16 0.00 88 1018.1
20260509232716 51 0 0.0 0.0 0.00 0.16 0.00 88 1018.0
20260509232216 51 0 0.0 0.0 0.00 0.16 0.00 88 1017.9
20260509231718 51 0 0.0 0.0 0.00 0.16 0.00 88 1018.1
20260509231218 51 0 0.0 0.0 0.00 0.16 0.00 88 1018.1
20260509230718 51 0 0.0 0.0 0.00 0.16 0.00 88 1018.2
20260509230218 51 0 0.0 0.0 0.00 0.16 0.00 88 1018.3
20260509225719 51 0 0.0 0.0 0.00 0.16 0.00 88 1018.3
20260509225219 52 0 0.0 0.0 0.00 0.16 0.00 88 1018.5